contact:dominique.lefevre@mio.osupytheas.fr, maurice.libes@osupytheas.fr, didier.mallarino@osupytheas.fr
Project:EMSO http://www.emso-fr.org/EMSO-France
Depth: 2436.0 m
Title:EMSO Ligure Ouest : Data MII capteur MICROCAT
DateTime_Computer,Latitude,Longitude,Temperature,Conductivity,Pressure,DateTime_Instrument
DateTime_Computer,Latitude,Longitude,degC,S m-1,dbar,DateTime_Instrument
2019-06-07T00:00:42Z,42.805,6.029,13.2953,4.59955,2469.89,2019-6-07T02:00:57Z
2019-06-07T00:03:45Z,42.805,6.029,13.2952,4.59956,2469.923,2019-6-07T02:04:00Z
2019-06-07T00:06:48Z,42.805,6.029,13.2953,4.59956,2469.89,2019-6-07T02:07:03Z
2019-06-07T00:09:51Z,42.805,6.029,13.2955,4.59955,2469.89,2019-6-07T02:10:06Z
2019-06-07T00:12:54Z,42.805,6.029,13.2952,4.59951,2469.853,2019-6-07T02:13:09Z
2019-06-07T00:15:56Z,42.805,6.029,13.2951,4.59954,2469.923,2019-6-07T02:16:12Z
2019-06-07T00:18:59Z,42.805,6.029,13.2956,4.59955,2469.89,2019-6-07T02:19:15Z
2019-06-07T00:22:02Z,42.805,6.029,13.2953,4.59953,2469.89,2019-6-07T02:22:18Z
2019-06-07T00:25:05Z,42.805,6.029,13.2958,4.59953,2469.89,2019-6-07T02:25:21Z
2019-06-07T00:28:08Z,42.805,6.029,13.2948,4.59952,2469.914,2019-6-07T02:28:24Z
2019-06-07T00:31:11Z,42.805,6.029,13.2950,4.59953,2469.853,2019-6-07T02:31:27Z
2019-06-07T00:34:14Z,42.805,6.029,13.2952,4.59952,2469.9,2019-6-07T02:34:30Z
2019-06-07T00:37:17Z,42.805,6.029,13.2948,4.59952,2469.867,2019-6-07T02:37:33Z
2019-06-07T00:40:20Z,42.805,6.029,13.2951,4.59952,2469.89,2019-6-07T02:40:36Z
2019-06-07T00:43:23Z,42.805,6.029,13.2952,4.59951,2469.876,2019-6-07T02:43:38Z
2019-06-07T00:46:26Z,42.805,6.029,13.2952,4.59952,2469.867,2019-6-07T02:46:41Z
2019-06-07T00:49:29Z,42.805,6.029,13.2952,4.59954,2469.853,2019-6-07T02:49:44Z
2019-06-07T00:52:32Z,42.805,6.029,13.2953,4.59956,2469.853,2019-6-07T02:52:47Z
2019-06-07T00:55:35Z,42.805,6.029,13.2948,4.59952,2469.853,2019-6-07T02:55:50Z
2019-06-07T00:58:38Z,42.805,6.029,13.2949,4.59954,2469.867,2019-6-07T02:58:53Z
2019-06-07T01:01:41Z,42.805,6.029,13.2948,4.59954,2469.853,2019-6-07T03:01:56Z
2019-06-07T01:04:44Z,42.805,6.029,13.2950,4.59953,2469.853,2019-6-07T03:04:59Z
2019-06-07T01:07:47Z,42.805,6.029,13.2952,4.59957,2469.867,2019-6-07T03:08:02Z
2019-06-07T01:10:49Z,42.805,6.029,13.2955,4.59952,2469.89,2019-6-07T03:11:05Z
2019-06-07T01:13:52Z,42.805,6.029,13.2948,4.59953,2469.83,2019-6-07T03:14:08Z
2019-06-07T01:16:55Z,42.805,6.029,13.2949,4.59951,2469.853,2019-6-07T03:17:11Z
2019-06-07T01:19:58Z,42.805,6.029,13.2953,4.59954,2469.821,2019-6-07T03:20:14Z
2019-06-07T01:23:01Z,42.805,6.029,13.2948,4.59955,2469.867,2019-6-07T03:23:17Z
2019-06-07T01:26:04Z,42.805,6.029,13.2953,4.59953,2469.867,2019-6-07T03:26:20Z
2019-06-07T01:29:07Z,42.805,6.029,13.2952,4.59955,2469.821,2019-6-07T03:29:23Z
2019-06-07T01:32:10Z,42.805,6.029,13.2953,4.59953,2469.867,2019-6-07T03:32:26Z
2019-06-07T01:35:13Z,42.805,6.029,13.2948,4.59953,2469.83,2019-6-07T03:35:28Z
2019-06-07T01:38:16Z,42.805,6.029,13.2953,4.59952,2469.867,2019-6-07T03:38:31Z
2019-06-07T01:41:19Z,42.805,6.029,13.2952,4.59954,2469.83,2019-6-07T03:41:34Z
2019-06-07T01:44:22Z,42.805,6.029,13.2949,4.59951,2469.853,2019-6-07T03:44:37Z
2019-06-07T01:47:25Z,42.805,6.029,13.2952,4.59951,2469.844,2019-6-07T03:47:40Z
2019-06-07T01:50:28Z,42.805,6.029,13.2950,4.59955,2469.821,2019-6-07T03:50:43Z
2019-06-07T01:53:31Z,42.805,6.029,13.2947,4.59951,2469.806,2019-6-07T03:53:46Z
2019-06-07T01:56:34Z,42.805,6.029,13.2951,4.59955,2469.83,2019-6-07T03:56:49Z
2019-06-07T01:59:37Z,42.805,6.029,13.2954,4.59955,2469.844,2019-6-07T03:59:52Z
2019-06-07T02:02:39Z,42.805,6.029,13.2954,4.59953,2469.83,2019-6-07T04:02:55Z
2019-06-07T02:05:42Z,42.805,6.029,13.2948,4.59953,2469.806,2019-6-07T04:05:58Z
2019-06-07T02:08:45Z,42.805,6.029,13.2954,4.59952,2469.806,2019-6-07T04:09:01Z
2019-06-07T02:11:48Z,42.805,6.029,13.2954,4.59955,2469.844,2019-6-07T04:12:04Z
2019-06-07T02:14:51Z,42.805,6.029,13.2953,4.59951,2469.83,2019-6-07T04:15:07Z
2019-06-07T02:17:54Z,42.805,6.029,13.2953,4.59951,2469.783,2019-6-07T04:18:10Z
2019-06-07T02:20:57Z,42.805,6.029,13.2953,4.59954,2469.853,2019-6-07T04:21:13Z
2019-06-07T02:24:00Z,42.805,6.029,13.2952,4.59952,2469.806,2019-6-07T04:24:16Z
2019-06-07T02:27:03Z,42.805,6.029,13.2949,4.59951,2469.821,2019-6-07T04:27:19Z
2019-06-07T02:30:06Z,42.805,6.029,13.2951,4.59952,2469.821,2019-6-07T04:30:21Z
2019-06-07T02:33:09Z,42.805,6.029,13.2952,4.59955,2469.821,2019-6-07T04:33:24Z
2019-06-07T02:36:12Z,42.805,6.029,13.2952,4.59951,2469.783,2019-6-07T04:36:27Z
2019-06-07T02:39:15Z,42.805,6.029,13.2955,4.59952,2469.783,2019-6-07T04:39:30Z
2019-06-07T02:42:18Z,42.805,6.029,13.2950,4.59951,2469.783,2019-6-07T04:42:33Z
2019-06-07T02:45:21Z,42.805,6.029,13.2953,4.59952,2469.783,2019-6-07T04:45:36Z
2019-06-07T02:48:24Z,42.805,6.029,13.2949,4.59954,2469.76,2019-6-07T04:48:39Z
2019-06-07T02:51:27Z,42.805,6.029,13.2951,4.59951,2469.797,2019-6-07T04:51:42Z
2019-06-07T02:54:30Z,42.805,6.029,13.2950,4.59951,2469.797,2019-6-07T04:54:45Z
2019-06-07T02:57:32Z,42.805,6.029,13.2953,4.59951,2469.783,2019-6-07T04:57:48Z
2019-06-07T03:00:35Z,42.805,6.029,13.2948,4.59953,2469.783,2019-6-07T05:00:51Z
2019-06-07T03:03:38Z,42.805,6.029,13.2948,4.59951,2469.821,2019-6-07T05:03:54Z
2019-06-07T03:06:41Z,42.805,6.029,13.2956,4.59951,2469.806,2019-6-07T05:06:57Z
2019-06-07T03:09:44Z,42.805,6.029,13.2951,4.59951,2469.783,2019-6-07T05:10:00Z
2019-06-07T03:12:47Z,42.805,6.029,13.2953,4.59951,2469.797,2019-6-07T05:13:03Z
2019-06-07T03:15:50Z,42.805,6.029,13.2955,4.59951,2469.806,2019-6-07T05:16:06Z
2019-06-07T03:18:53Z,42.805,6.029,13.2955,4.59951,2469.773,2019-6-07T05:19:09Z
2019-06-07T03:21:56Z,42.805,6.029,13.2953,4.59951,2469.797,2019-6-07T05:22:11Z
2019-06-07T03:24:59Z,42.805,6.029,13.2952,4.59951,2469.773,2019-6-07T05:25:14Z
2019-06-07T03:28:02Z,42.805,6.029,13.2948,4.59950,2469.821,2019-6-07T05:28:17Z
2019-06-07T03:31:05Z,42.805,6.029,13.2948,4.59951,2469.797,2019-6-07T05:31:20Z
2019-06-07T03:34:08Z,42.805,6.029,13.2953,4.59951,2469.806,2019-6-07T05:34:23Z
2019-06-07T03:37:11Z,42.805,6.029,13.2952,4.59951,2469.773,2019-6-07T05:37:26Z
2019-06-07T03:40:14Z,42.805,6.029,13.2953,4.59951,2469.783,2019-6-07T05:40:29Z
2019-06-07T03:43:17Z,42.805,6.029,13.2953,4.59950,2469.773,2019-6-07T05:43:32Z
2019-06-07T03:46:20Z,42.805,6.029,13.2948,4.59951,2469.773,2019-6-07T05:46:35Z
2019-06-07T03:49:22Z,42.805,6.029,13.2952,4.59952,2469.821,2019-6-07T05:49:38Z
2019-06-07T03:52:25Z,42.805,6.029,13.2953,4.59951,2469.783,2019-6-07T05:52:41Z
2019-06-07T03:55:28Z,42.805,6.029,13.2952,4.59949,2469.773,2019-6-07T05:55:44Z
2019-06-07T03:58:31Z,42.805,6.029,13.2953,4.59950,2469.783,2019-6-07T05:58:47Z
2019-06-07T04:01:34Z,42.805,6.029,13.2952,4.59951,2469.75,2019-6-07T06:01:50Z
2019-06-07T04:04:37Z,42.805,6.029,13.2949,4.59950,2469.773,2019-6-07T06:04:53Z
2019-06-07T04:07:40Z,42.805,6.029,13.2952,4.59951,2469.806,2019-6-07T06:07:56Z
2019-06-07T04:10:43Z,42.805,6.029,13.2948,4.59951,2469.773,2019-6-07T06:10:59Z
2019-06-07T04:13:46Z,42.805,6.029,13.2953,4.59951,2469.75,2019-6-07T06:14:02Z
2019-06-07T04:16:49Z,42.805,6.029,13.2951,4.59952,2469.727,2019-6-07T06:17:04Z
2019-06-07T04:19:52Z,42.805,6.029,13.2952,4.59950,2469.773,2019-6-07T06:20:07Z
2019-06-07T04:22:55Z,42.805,6.029,13.2952,4.59951,2469.797,2019-6-07T06:23:10Z
2019-06-07T04:25:58Z,42.805,6.029,13.2952,4.59951,2469.737,2019-6-07T06:26:13Z
2019-06-07T04:29:01Z,42.805,6.029,13.2948,4.59949,2469.773,2019-6-07T06:29:16Z
2019-06-07T04:32:04Z,42.805,6.029,13.2947,4.59951,2469.713,2019-6-07T06:32:19Z
2019-06-07T04:35:07Z,42.805,6.029,13.2953,4.59951,2469.737,2019-6-07T06:35:22Z
2019-06-07T04:38:10Z,42.805,6.029,13.2952,4.59950,2469.773,2019-6-07T06:38:25Z
2019-06-07T04:41:13Z,42.805,6.029,13.2951,4.59951,2469.773,2019-6-07T06:41:28Z
2019-06-07T04:44:15Z,42.805,6.029,13.2947,4.59951,2469.773,2019-6-07T06:44:31Z
2019-06-07T04:47:18Z,42.805,6.029,13.2952,4.59951,2469.76,2019-6-07T06:47:34Z
2019-06-07T04:50:21Z,42.805,6.029,13.2952,4.59951,2469.773,2019-6-07T06:50:37Z
2019-06-07T04:53:24Z,42.805,6.029,13.2953,4.59950,2469.76,2019-6-07T06:53:40Z
2019-06-07T04:56:27Z,42.805,6.029,13.2952,4.59952,2469.76,2019-6-07T06:56:43Z
2019-06-07T04:59:30Z,42.805,6.029,13.2945,4.59951,2469.727,2019-6-07T06:59:46Z
2019-06-07T05:02:33Z,42.805,6.029,13.2953,4.59951,2469.75,2019-6-07T07:02:49Z
2019-06-07T05:05:36Z,42.805,6.029,13.2951,4.59951,2469.737,2019-6-07T07:05:52Z
2019-06-07T05:08:39Z,42.805,6.029,13.2952,4.59951,2469.76,2019-6-07T07:08:55Z
2019-06-07T05:11:42Z,42.805,6.029,13.2953,4.59951,2469.737,2019-6-07T07:11:57Z
2019-06-07T05:14:45Z,42.805,6.029,13.2953,4.59952,2469.737,2019-6-07T07:15:00Z
2019-06-07T05:17:48Z,42.805,6.029,13.2952,4.59951,2469.737,2019-6-07T07:18:03Z
2019-06-07T05:20:51Z,42.805,6.029,13.2954,4.59951,2469.713,2019-6-07T07:21:06Z
2019-06-07T05:23:54Z,42.805,6.029,13.2952,4.59950,2469.75,2019-6-07T07:24:09Z
2019-06-07T05:26:57Z,42.805,6.029,13.2951,4.59951,2469.76,2019-6-07T07:27:12Z
2019-06-07T05:30:00Z,42.805,6.029,13.2949,4.59953,2469.737,2019-6-07T07:30:15Z
2019-06-07T05:33:03Z,42.805,6.029,13.2954,4.59951,2469.76,2019-6-07T07:33:18Z
2019-06-07T05:36:05Z,42.805,6.029,13.2950,4.59951,2469.727,2019-6-07T07:36:21Z
2019-06-07T05:39:08Z,42.805,6.029,13.2950,4.59951,2469.783,2019-6-07T07:39:24Z
2019-06-07T05:42:11Z,42.805,6.029,13.2952,4.59951,2469.76,2019-6-07T07:42:27Z
2019-06-07T05:45:14Z,42.805,6.029,13.2953,4.59952,2469.76,2019-6-07T07:45:30Z
2019-06-07T05:48:17Z,42.805,6.029,13.2952,4.59951,2469.75,2019-6-07T07:48:33Z
2019-06-07T05:51:20Z,42.805,6.029,13.2949,4.59951,2469.773,2019-6-07T07:51:36Z
2019-06-07T05:54:23Z,42.805,6.029,13.2950,4.59951,2469.76,2019-6-07T07:54:39Z
2019-06-07T05:57:26Z,42.805,6.029,13.2952,4.59951,2469.773,2019-6-07T07:57:42Z
2019-06-07T06:00:29Z,42.805,6.029,13.2952,4.59949,2469.76,2019-6-07T08:00:45Z
2019-06-07T06:03:32Z,42.805,6.029,13.2951,4.59950,2469.737,2019-6-07T08:03:47Z
2019-06-07T06:06:35Z,42.805,6.029,13.2952,4.59950,2469.773,2019-6-07T08:06:50Z
2019-06-07T06:09:38Z,42.805,6.029,13.2952,4.59950,2469.76,2019-6-07T08:09:53Z
2019-06-07T06:12:41Z,42.805,6.029,13.2949,4.59951,2469.76,2019-6-07T08:12:56Z
2019-06-07T06:15:44Z,42.805,6.029,13.2948,4.59949,2469.76,2019-6-07T08:15:59Z
2019-06-07T06:18:47Z,42.805,6.029,13.2953,4.59950,2469.76,2019-6-07T08:19:02Z
2019-06-07T06:21:50Z,42.805,6.029,13.2952,4.59950,2469.783,2019-6-07T08:22:05Z
2019-06-07T06:24:53Z,42.805,6.029,13.2954,4.59951,2469.797,2019-6-07T08:25:08Z
2019-06-07T06:27:55Z,42.805,6.029,13.2953,4.59952,2469.773,2019-6-07T08:28:11Z
2019-06-07T06:30:58Z,42.805,6.029,13.2951,4.59954,2469.76,2019-6-07T08:31:14Z
2019-06-07T06:34:01Z,42.805,6.029,13.2951,4.59949,2469.806,2019-6-07T08:34:17Z
2019-06-07T06:37:04Z,42.805,6.029,13.2954,4.59949,2469.76,2019-6-07T08:37:20Z
2019-06-07T06:40:07Z,42.805,6.029,13.2953,4.59950,2469.773,2019-6-07T08:40:23Z
2019-06-07T06:43:10Z,42.805,6.029,13.2950,4.59951,2469.737,2019-6-07T08:43:26Z
2019-06-07T06:46:13Z,42.805,6.029,13.2952,4.59950,2469.806,2019-6-07T08:46:29Z
2019-06-07T06:49:16Z,42.805,6.029,13.2949,4.59949,2469.806,2019-6-07T08:49:32Z
2019-06-07T06:52:19Z,42.805,6.029,13.2951,4.59949,2469.797,2019-6-07T08:52:35Z
2019-06-07T06:55:22Z,42.805,6.029,13.2953,4.59949,2469.773,2019-6-07T08:55:38Z
2019-06-07T06:58:25Z,42.805,6.029,13.2953,4.59948,2469.797,2019-6-07T08:58:40Z
2019-06-07T07:01:28Z,42.805,6.029,13.2952,4.59948,2469.773,2019-6-07T09:01:43Z
2019-06-07T07:04:31Z,42.805,6.029,13.2948,4.59949,2469.773,2019-6-07T09:04:46Z
2019-06-07T07:07:34Z,42.805,6.029,13.2949,4.59948,2469.797,2019-6-07T09:07:49Z
2019-06-07T07:10:37Z,42.805,6.029,13.2952,4.59949,2469.769,2019-6-07T09:10:52Z
2019-06-07T07:13:40Z,42.805,6.029,13.2950,4.59948,2469.783,2019-6-07T09:13:55Z
2019-06-07T07:16:43Z,42.805,6.029,13.2952,4.59948,2469.821,2019-6-07T09:16:58Z
2019-06-07T07:19:46Z,42.805,6.029,13.2950,4.59951,2469.83,2019-6-07T09:20:01Z
2019-06-07T07:22:48Z,42.805,6.029,13.2951,4.59949,2469.844,2019-6-07T09:23:04Z
2019-06-07T07:25:51Z,42.805,6.029,13.2952,4.59949,2469.806,2019-6-07T09:26:07Z
2019-06-07T07:28:54Z,42.805,6.029,13.2952,4.59948,2469.806,2019-6-07T09:29:10Z
2019-06-07T07:31:57Z,42.805,6.029,13.2948,4.59949,2469.83,2019-6-07T09:32:13Z
2019-06-07T07:35:00Z,42.805,6.029,13.2954,4.59951,2469.806,2019-6-07T09:35:16Z
2019-06-07T07:38:03Z,42.805,6.029,13.2948,4.59951,2469.806,2019-6-07T09:38:19Z
2019-06-07T07:41:06Z,42.805,6.029,13.2951,4.59951,2469.853,2019-6-07T09:41:22Z
2019-06-07T07:44:09Z,42.805,6.029,13.2954,4.59952,2469.844,2019-6-07T09:44:25Z
2019-06-07T07:47:12Z,42.805,6.029,13.2953,4.59949,2469.867,2019-6-07T09:47:28Z
2019-06-07T07:50:15Z,42.805,6.029,13.2947,4.59949,2469.821,2019-6-07T09:50:31Z
2019-06-07T07:53:18Z,42.805,6.029,13.2946,4.59950,2469.83,2019-6-07T09:53:33Z
2019-06-07T07:56:21Z,42.805,6.029,13.2952,4.59948,2469.876,2019-6-07T09:56:36Z
2019-06-07T07:59:24Z,42.805,6.029,13.2949,4.59949,2469.844,2019-6-07T09:59:39Z
2019-06-07T08:02:27Z,42.805,6.029,13.2950,4.59949,2469.853,2019-6-07T10:02:42Z
2019-06-07T08:05:30Z,42.805,6.029,13.2948,4.59950,2469.821,2019-6-07T10:05:45Z
2019-06-07T08:08:33Z,42.805,6.029,13.2951,4.59950,2469.806,2019-6-07T10:08:48Z
2019-06-07T08:11:36Z,42.805,6.029,13.2946,4.59949,2469.806,2019-6-07T10:11:51Z
2019-06-07T08:14:39Z,42.805,6.029,13.2952,4.59950,2469.83,2019-6-07T10:14:54Z
2019-06-07T08:17:42Z,42.805,6.029,13.2953,4.59948,2469.853,2019-6-07T10:17:57Z
2019-06-07T08:20:44Z,42.805,6.029,13.2953,4.59949,2469.83,2019-6-07T10:21:00Z
2019-06-07T08:23:47Z,42.805,6.029,13.2951,4.59950,2469.853,2019-6-07T10:24:03Z
2019-06-07T08:26:50Z,42.805,6.029,13.2949,4.59950,2469.89,2019-6-07T10:27:06Z
2019-06-07T08:29:53Z,42.805,6.029,13.2949,4.59951,2469.853,2019-6-07T10:30:09Z
2019-06-07T08:32:56Z,42.805,6.029,13.2951,4.59948,2469.844,2019-6-07T10:33:12Z
2019-06-07T08:35:59Z,42.805,6.029,13.2951,4.59948,2469.806,2019-6-07T10:36:15Z
2019-06-07T08:39:02Z,42.805,6.029,13.2953,4.59949,2469.83,2019-6-07T10:39:18Z
2019-06-07T08:42:05Z,42.805,6.029,13.2950,4.59950,2469.867,2019-6-07T10:42:21Z
2019-06-07T08:45:08Z,42.805,6.029,13.2950,4.59948,2469.876,2019-6-07T10:45:24Z
2019-06-07T08:48:11Z,42.805,6.029,13.2952,4.59951,2469.853,2019-6-07T10:48:27Z
2019-06-07T08:51:14Z,42.805,6.029,13.2953,4.59948,2469.867,2019-6-07T10:51:29Z
2019-06-07T08:54:17Z,42.805,6.029,13.2947,4.59951,2469.844,2019-6-07T10:54:32Z
2019-06-07T08:57:20Z,42.805,6.029,13.2951,4.59954,2469.867,2019-6-07T10:57:35Z
2019-06-07T09:00:23Z,42.805,6.029,13.2952,4.59950,2469.83,2019-6-07T11:00:38Z
2019-06-07T09:03:26Z,42.805,6.029,13.2952,4.59949,2469.876,2019-6-07T11:03:41Z
2019-06-07T09:06:29Z,42.805,6.029,13.2946,4.59950,2469.853,2019-6-07T11:06:44Z
2019-06-07T09:09:32Z,42.805,6.029,13.2949,4.59948,2469.876,2019-6-07T11:09:47Z
2019-06-07T09:12:35Z,42.805,6.029,13.2948,4.59949,2469.821,2019-6-07T11:12:50Z
2019-06-07T09:15:38Z,42.805,6.029,13.2952,4.59950,2469.867,2019-6-07T11:15:53Z
2019-06-07T09:18:40Z,42.805,6.029,13.2948,4.59950,2469.853,2019-6-07T11:18:56Z
2019-06-07T09:21:43Z,42.805,6.029,13.2949,4.59951,2469.89,2019-6-07T11:21:59Z
2019-06-07T09:24:46Z,42.805,6.029,13.2952,4.59951,2469.853,2019-6-07T11:25:02Z
2019-06-07T09:27:49Z,42.805,6.029,13.2954,4.59949,2469.867,2019-6-07T11:28:05Z
2019-06-07T09:30:52Z,42.805,6.029,13.2953,4.59950,2469.867,2019-6-07T11:31:08Z
2019-06-07T09:33:55Z,42.805,6.029,13.2946,4.59949,2469.876,2019-6-07T11:34:11Z
2019-06-07T09:36:58Z,42.805,6.029,13.2953,4.59950,2469.89,2019-6-07T11:37:14Z
2019-06-07T09:40:01Z,42.805,6.029,13.2952,4.59949,2469.853,2019-6-07T11:40:17Z
2019-06-07T09:43:04Z,42.805,6.029,13.2948,4.59948,2469.876,2019-6-07T11:43:20Z
2019-06-07T09:46:07Z,42.805,6.029,13.2952,4.59950,2469.867,2019-6-07T11:46:23Z
2019-06-07T09:49:10Z,42.805,6.029,13.2949,4.59949,2469.853,2019-6-07T11:49:25Z
2019-06-07T09:52:13Z,42.805,6.029,13.2950,4.59948,2469.83,2019-6-07T11:52:28Z
2019-06-07T09:55:16Z,42.805,6.029,13.2950,4.59949,2469.876,2019-6-07T11:55:31Z
2019-06-07T09:58:19Z,42.805,6.029,13.2948,4.59951,2469.89,2019-6-07T11:58:34Z
2019-06-07T10:01:22Z,42.805,6.029,13.2953,4.59951,2469.853,2019-6-07T12:01:37Z
2019-06-07T10:04:25Z,42.805,6.029,13.2952,4.59951,2469.876,2019-6-07T12:04:40Z
2019-06-07T10:07:28Z,42.805,6.029,13.2950,4.59951,2469.89,2019-6-07T12:07:43Z
2019-06-07T10:10:31Z,42.805,6.029,13.2951,4.59949,2469.914,2019-6-07T12:10:46Z
2019-06-07T10:13:34Z,42.805,6.029,13.2952,4.59951,2469.844,2019-6-07T12:13:49Z
2019-06-07T10:16:37Z,42.805,6.029,13.2952,4.59952,2469.89,2019-6-07T12:16:52Z
2019-06-07T10:19:39Z,42.805,6.029,13.2947,4.59951,2469.821,2019-6-07T12:19:55Z
2019-06-07T10:22:42Z,42.805,6.029,13.2952,4.59950,2469.83,2019-6-07T12:22:58Z
2019-06-07T10:25:45Z,42.805,6.029,13.2951,4.59951,2469.876,2019-6-07T12:26:01Z
2019-06-07T10:28:48Z,42.805,6.029,13.2954,4.59951,2469.853,2019-6-07T12:29:04Z
2019-06-07T10:31:51Z,42.805,6.029,13.2956,4.59950,2469.844,2019-6-07T12:32:07Z
2019-06-07T10:34:54Z,42.805,6.029,13.2947,4.59949,2469.853,2019-6-07T12:35:10Z
2019-06-07T10:37:57Z,42.805,6.029,13.2952,4.59949,2469.876,2019-6-07T12:38:13Z
2019-06-07T10:41:00Z,42.805,6.029,13.2948,4.59951,2469.83,2019-6-07T12:41:16Z
2019-06-07T10:44:03Z,42.805,6.029,13.2951,4.59949,2469.89,2019-6-07T12:44:19Z
2019-06-07T10:47:06Z,42.805,6.029,13.2953,4.59950,2469.876,2019-6-07T12:47:22Z
2019-06-07T10:50:09Z,42.805,6.029,13.2948,4.59948,2469.89,2019-6-07T12:50:24Z
2019-06-07T10:53:12Z,42.805,6.029,13.2948,4.59950,2469.83,2019-6-07T12:53:27Z
2019-06-07T10:56:15Z,42.805,6.029,13.2953,4.59949,2469.876,2019-6-07T12:56:30Z
2019-06-07T10:59:18Z,42.805,6.029,13.2948,4.59948,2469.89,2019-6-07T12:59:33Z
2019-06-07T11:02:21Z,42.805,6.029,13.2946,4.59951,2469.853,2019-6-07T13:02:36Z
2019-06-07T11:05:24Z,42.805,6.029,13.2953,4.59950,2469.844,2019-6-07T13:05:39Z
2019-06-07T11:08:27Z,42.805,6.029,13.2951,4.59950,2469.876,2019-6-07T13:08:42Z
2019-06-07T11:11:30Z,42.805,6.029,13.2946,4.59948,2469.844,2019-6-07T13:11:45Z
2019-06-07T11:14:33Z,42.805,6.029,13.2957,4.59949,2469.853,2019-6-07T13:14:48Z
2019-06-07T11:17:36Z,42.805,6.029,13.2948,4.59949,2469.867,2019-6-07T13:17:51Z
2019-06-07T11:20:38Z,42.805,6.029,13.2950,4.59950,2469.844,2019-6-07T13:20:54Z
2019-06-07T11:23:41Z,42.805,6.029,13.2950,4.59950,2469.806,2019-6-07T13:23:57Z
2019-06-07T11:26:44Z,42.805,6.029,13.2950,4.59948,2469.844,2019-6-07T13:27:00Z
2019-06-07T11:29:47Z,42.805,6.029,13.2953,4.59949,2469.83,2019-6-07T13:30:03Z
2019-06-07T11:32:50Z,42.805,6.029,13.2947,4.59950,2469.83,2019-6-07T13:33:06Z
2019-06-07T11:35:53Z,42.805,6.029,13.2951,4.59949,2469.853,2019-6-07T13:36:09Z
2019-06-07T11:38:56Z,42.805,6.029,13.2948,4.59948,2469.83,2019-6-07T13:39:12Z
2019-06-07T11:41:59Z,42.805,6.029,13.2951,4.59951,2469.821,2019-6-07T13:42:15Z
2019-06-07T11:45:02Z,42.805,6.029,13.2949,4.59949,2469.867,2019-6-07T13:45:18Z
2019-06-07T11:48:05Z,42.805,6.029,13.2946,4.59950,2469.806,2019-6-07T13:48:20Z
2019-06-07T11:51:08Z,42.805,6.029,13.2949,4.59949,2469.821,2019-6-07T13:51:23Z
2019-06-07T11:54:11Z,42.805,6.029,13.2952,4.59951,2469.806,2019-6-07T13:54:26Z
2019-06-07T11:57:14Z,42.805,6.029,13.2951,4.59950,2469.83,2019-6-07T13:57:29Z
2019-06-07T12:00:17Z,42.805,6.029,13.2948,4.59951,2469.844,2019-6-07T14:00:32Z
2019-06-07T12:03:20Z,42.805,6.029,13.2952,4.59950,2469.806,2019-6-07T14:03:35Z
2019-06-07T12:06:23Z,42.805,6.029,13.2951,4.59951,2469.806,2019-6-07T14:06:38Z
2019-06-07T12:09:26Z,42.805,6.029,13.2953,4.59950,2469.821,2019-6-07T14:09:41Z
2019-06-07T12:12:29Z,42.805,6.029,13.2954,4.59951,2469.806,2019-6-07T14:12:44Z
2019-06-07T12:15:31Z,42.805,6.029,13.2951,4.59952,2469.867,2019-6-07T14:15:47Z
2019-06-07T12:18:34Z,42.805,6.029,13.2947,4.59949,2469.806,2019-6-07T14:18:50Z
2019-06-07T12:21:37Z,42.805,6.029,13.2947,4.59948,2469.821,2019-6-07T14:21:53Z
2019-06-07T12:24:40Z,42.805,6.029,13.2949,4.59951,2469.821,2019-6-07T14:24:56Z
2019-06-07T12:27:43Z,42.805,6.029,13.2949,4.59950,2469.83,2019-6-07T14:27:59Z
2019-06-07T12:30:46Z,42.805,6.029,13.2952,4.59951,2469.806,2019-6-07T14:31:02Z
2019-06-07T12:33:49Z,42.805,6.029,13.2948,4.59948,2469.797,2019-6-07T14:34:05Z
2019-06-07T12:36:52Z,42.805,6.029,13.2953,4.59949,2469.783,2019-6-07T14:37:08Z
2019-06-07T12:39:55Z,42.805,6.029,13.2952,4.59948,2469.783,2019-6-07T14:40:11Z
2019-06-07T12:42:58Z,42.805,6.029,13.2949,4.59950,2469.806,2019-6-07T14:43:14Z
2019-06-07T12:46:01Z,42.805,6.029,13.2952,4.59951,2469.783,2019-6-07T14:46:17Z
2019-06-07T12:49:04Z,42.805,6.029,13.2951,4.59949,2469.806,2019-6-07T14:49:19Z
2019-06-07T12:52:07Z,42.805,6.029,13.2952,4.59950,2469.773,2019-6-07T14:52:22Z
2019-06-07T12:55:10Z,42.805,6.029,13.2952,4.59950,2469.76,2019-6-07T14:55:25Z
2019-06-07T12:58:13Z,42.805,6.029,13.2952,4.59948,2469.797,2019-6-07T14:58:28Z
2019-06-07T13:01:16Z,42.805,6.029,13.2950,4.59948,2469.773,2019-6-07T15:01:31Z
2019-06-07T13:04:19Z,42.805,6.029,13.2950,4.59948,2469.783,2019-6-07T15:04:34Z
2019-06-07T13:07:22Z,42.805,6.029,13.2953,4.59949,2469.76,2019-6-07T15:07:37Z
2019-06-07T13:10:25Z,42.805,6.029,13.2953,4.59947,2469.806,2019-6-07T15:10:40Z
2019-06-07T13:13:28Z,42.805,6.029,13.2950,4.59951,2469.783,2019-6-07T15:13:43Z
2019-06-07T13:16:30Z,42.805,6.029,13.2952,4.59948,2469.806,2019-6-07T15:16:46Z
2019-06-07T13:19:33Z,42.805,6.029,13.2951,4.59948,2469.76,2019-6-07T15:19:49Z
2019-06-07T13:22:36Z,42.805,6.029,13.2951,4.59949,2469.769,2019-6-07T15:22:52Z
2019-06-07T13:25:39Z,42.805,6.029,13.2952,4.59949,2469.797,2019-6-07T15:25:55Z
2019-06-07T13:28:42Z,42.805,6.029,13.2949,4.59951,2469.783,2019-6-07T15:28:58Z
2019-06-07T13:31:45Z,42.805,6.029,13.2951,4.59951,2469.797,2019-6-07T15:32:01Z
2019-06-07T13:34:48Z,42.805,6.029,13.2946,4.59950,2469.783,2019-6-07T15:35:04Z
2019-06-07T13:37:51Z,42.805,6.029,13.2953,4.59949,2469.783,2019-6-07T15:38:07Z
2019-06-07T13:40:54Z,42.805,6.029,13.2948,4.59949,2469.773,2019-6-07T15:41:10Z
2019-06-07T13:43:57Z,42.805,6.029,13.2951,4.59950,2469.75,2019-6-07T15:44:13Z
2019-06-07T13:47:00Z,42.805,6.029,13.2953,4.59949,2469.737,2019-6-07T15:47:15Z
2019-06-07T13:50:03Z,42.805,6.029,13.2952,4.59949,2469.773,2019-6-07T15:50:18Z
2019-06-07T13:53:06Z,42.805,6.029,13.2947,4.59949,2469.773,2019-6-07T15:53:21Z
2019-06-07T13:56:09Z,42.805,6.029,13.2948,4.59949,2469.76,2019-6-07T15:56:24Z
2019-06-07T13:59:12Z,42.805,6.029,13.2953,4.59950,2469.797,2019-6-07T15:59:27Z
2019-06-07T14:02:15Z,42.805,6.029,13.2952,4.59952,2469.773,2019-6-07T16:02:30Z
2019-06-07T14:05:18Z,42.805,6.029,13.2949,4.59951,2469.773,2019-6-07T16:05:33Z
2019-06-07T14:08:21Z,42.805,6.029,13.2953,4.59949,2469.76,2019-6-07T16:08:36Z
2019-06-07T14:11:24Z,42.805,6.029,13.2953,4.59951,2469.737,2019-6-07T16:11:39Z
2019-06-07T14:14:26Z,42.805,6.029,13.2951,4.59951,2469.76,2019-6-07T16:14:42Z
2019-06-07T14:17:29Z,42.805,6.029,13.2948,4.59951,2469.76,2019-6-07T16:17:45Z
2019-06-07T14:20:32Z,42.805,6.029,13.2949,4.59950,2469.75,2019-6-07T16:20:48Z
2019-06-07T14:23:35Z,42.805,6.029,13.2952,4.59950,2469.773,2019-6-07T16:23:51Z
2019-06-07T14:26:38Z,42.805,6.029,13.2946,4.59949,2469.773,2019-6-07T16:26:54Z
2019-06-07T14:29:41Z,42.805,6.029,13.2949,4.59948,2469.783,2019-6-07T16:29:57Z
2019-06-07T14:32:44Z,42.805,6.029,13.2953,4.59950,2469.76,2019-6-07T16:33:00Z
2019-06-07T14:35:47Z,42.805,6.029,13.2949,4.59951,2469.737,2019-6-07T16:36:03Z
2019-06-07T14:38:50Z,42.805,6.029,13.2952,4.59950,2469.783,2019-6-07T16:39:06Z
2019-06-07T14:41:53Z,42.805,6.029,13.2948,4.59949,2469.75,2019-6-07T16:42:09Z
2019-06-07T14:44:56Z,42.805,6.029,13.2950,4.59948,2469.76,2019-6-07T16:45:11Z
2019-06-07T14:47:59Z,42.805,6.029,13.2953,4.59948,2469.713,2019-6-07T16:48:14Z
2019-06-07T14:51:02Z,42.805,6.029,13.2949,4.59950,2469.69,2019-6-07T16:51:17Z
2019-06-07T14:54:05Z,42.805,6.029,13.2953,4.59949,2469.737,2019-6-07T16:54:20Z
2019-06-07T14:57:08Z,42.805,6.029,13.2953,4.59949,2469.727,2019-6-07T16:57:23Z
2019-06-07T15:00:11Z,42.805,6.029,13.2952,4.59950,2469.773,2019-6-07T17:00:26Z
2019-06-07T15:03:14Z,42.805,6.029,13.2953,4.59951,2469.76,2019-6-07T17:03:29Z
2019-06-07T15:06:17Z,42.805,6.029,13.2949,4.59949,2469.737,2019-6-07T17:06:32Z
2019-06-07T15:09:20Z,42.805,6.029,13.2952,4.59951,2469.713,2019-6-07T17:09:35Z